Time,TemperatureF,DewpointF,PressureIn,WindDirection,WindDirectionDegrees,WindSpeedMPH,WindSpeedGustMPH,Humidity,HourlyPrecipIn,Conditions,Clouds,dailyrainin,SoftwareType,DateUTC
2013-03-08 02:01:00,42.0,34.0,-100.00,North,-999,-999.0,-999.0,74,-99.99,,,-99.99,,2013-03-08 02:01:00,
2013-03-08 02:11:00,42.0,34.0,-100.00,North,-999,-999.0,-999.0,74,-99.99,,,-99.99,,2013-03-08 02:11:00,
2013-03-08 02:21:00,42.0,34.0,-100.00,North,-999,-999.0,-999.0,74,-99.99,,,-99.99,,2013-03-08 02:21:00,
2013-03-08 02:31:00,41.0,37.0,-100.00,North,-999,-999.0,-999.0,85,-99.99,,,-99.99,,2013-03-08 02:31:00,
2013-03-08 02:42:00,41.0,37.0,-100.00,North,-999,-999.0,-999.0,85,-99.99,,,-99.99,,2013-03-08 02:42:00,
2013-03-08 02:52:00,41.0,37.0,-100.00,North,-999,-999.0,-999.0,85,-99.99,,,-99.99,,2013-03-08 02:52:00,
2013-03-08 03:01:00,39.0,38.0,-100.00,North,-999,-999.0,-999.0,95,-99.99,,,-99.99,,2013-03-08 03:01:00,
2013-03-08 03:11:00,39.0,38.0,-100.00,North,-999,-999.0,-999.0,95,-99.99,,,-99.99,,2013-03-08 03:11:00,
2013-03-08 03:22:00,39.0,38.0,-100.00,North,-999,-999.0,-999.0,95,-99.99,,,-99.99,,2013-03-08 03:22:00,
2013-03-08 03:32:00,38.0,38.0,-100.00,North,-999,-999.0,-999.0,99,-99.99,,,-99.99,,2013-03-08 03:32:00,
2013-03-08 03:43:00,38.0,38.0,-100.00,North,-999,-999.0,-999.0,99,-99.99,,,-99.99,,2013-03-08 03:43:00,
2013-03-08 03:52:00,38.0,38.0,-100.00,North,-999,-999.0,-999.0,100,-99.99,,,-99.99,,2013-03-08 03:52:00,
2013-03-08 04:01:00,38.0,38.0,-100.00,North,-999,-999.0,-999.0,100,-99.99,,,-99.99,,2013-03-08 04:01:00,
2013-03-08 04:11:00,38.0,38.0,-100.00,North,-999,-999.0,-999.0,100,-99.99,,,-99.99,,2013-03-08 04:11:00,
2013-03-08 05:32:00,35.0,35.0,-100.00,North,-999,-999.0,-999.0,100,-99.99,,,-99.99,,2013-03-08 05:32:00,
2013-03-08 05:42:00,35.0,35.0,-100.00,North,-999,-999.0,-999.0,100,-99.99,,,-99.99,,2013-03-08 05:42:00,
2013-03-08 05:52:00,35.0,35.0,-100.00,North,-999,-999.0,-999.0,100,-99.99,,,-99.99,,2013-03-08 05:52:00,
2013-03-08 06:31:00,33.0,33.0,-100.00,North,-999,-999.0,-999.0,100,-99.99,,,-99.99,,2013-03-08 06:31:00,
2013-03-08 06:42:00,33.0,33.0,-100.00,North,-999,-999.0,-999.0,100,-99.99,,,-99.99,,2013-03-08 06:42:00,
2013-03-08 06:52:00,33.0,33.0,-100.00,North,-999,-999.0,-999.0,100,-99.99,,,-99.99,,2013-03-08 06:52:00,
2013-03-08 07:01:00,33.0,33.0,-100.00,North,-999,-999.0,-999.0,100,-99.99,,,-99.99,,2013-03-08 07:01:00,
2013-03-08 07:11:00,33.0,33.0,-100.00,North,-999,-999.0,-999.0,100,-99.99,,,-99.99,,2013-03-08 07:11:00,
2013-03-08 07:21:00,33.0,33.0,-100.00,North,-999,-999.0,-999.0,100,-99.99,,,-99.99,,2013-03-08 07:21:00,
2013-03-08 07:31:00,33.0,33.0,-100.00,North,-999,-999.0,-999.0,100,-99.99,,,-99.99,,2013-03-08 07:31:00,
2013-03-08 07:52:00,33.0,33.0,-100.00,North,-999,-999.0,-999.0,100,-99.99,,,-99.99,,2013-03-08 07:52:00,
2013-03-08 08:01:00,33.0,33.0,-100.00,North,-999,-999.0,-999.0,100,-99.99,,,-99.99,,2013-03-08 08:01:00,
2013-03-08 08:11:00,33.0,33.0,-100.00,North,-999,-999.0,-999.0,100,-99.99,,,-99.99,,2013-03-08 08:11:00,
2013-03-08 08:21:00,33.0,33.0,-100.00,North,-999,-999.0,-999.0,100,-99.99,,,-99.99,,2013-03-08 08:21:00,
2013-03-08 08:31:00,33.0,33.0,-100.00,North,-999,-999.0,-999.0,100,-99.99,,,-99.99,,2013-03-08 08:31:00,
2013-03-08 08:42:00,33.0,33.0,-100.00,North,-999,-999.0,-999.0,100,-99.99,,,-99.99,,2013-03-08 08:42:00,
2013-03-08 08:52:00,33.0,33.0,-100.00,North,-999,-999.0,-999.0,100,-99.99,,,-99.99,,2013-03-08 08:52:00,
2013-03-08 09:02:00,33.0,33.0,-100.00,North,-999,-999.0,-999.0,100,-99.99,,,-99.99,,2013-03-08 09:02:00,
2013-03-08 09:11:00,33.0,33.0,-100.00,North,-999,-999.0,-999.0,100,-99.99,,,-99.99,,2013-03-08 09:11:00,
2013-03-08 09:31:00,33.0,33.0,-100.00,North,-999,-999.0,-999.0,100,-99.99,,,-99.99,,2013-03-08 09:31:00,
2013-03-08 09:42:00,33.0,33.0,-100.00,North,-999,-999.0,-999.0,100,-99.99,,,-99.99,,2013-03-08 09:42:00,
2013-03-08 09:51:00,33.0,33.0,-100.00,North,-999,-999.0,-999.0,100,-99.99,,,-99.99,,2013-03-08 09:51:00,
2013-03-08 10:01:00,33.0,33.0,-100.00,North,-999,-999.0,-999.0,100,-99.99,,,-99.99,,2013-03-08 10:01:00,
2013-03-08 16:32:00,37.0,36.0,-100.00,North,-999,-999.0,-999.0,97,-99.99,,,-99.99,,2013-03-08 16:32:00,
2013-03-08 16:42:00,37.0,36.0,-100.00,North,-999,-999.0,-999.0,97,-99.99,,,-99.99,,2013-03-08 16:42:00,
2013-03-08 16:52:00,37.0,36.0,-100.00,North,-999,-999.0,-999.0,97,-99.99,,,-99.99,,2013-03-08 16:52:00,
2013-03-08 17:02:00,38.0,36.0,-100.00,North,-999,-999.0,-999.0,94,-99.99,,,-99.99,,2013-03-08 17:02:00,
2013-03-08 17:11:00,38.0,36.0,-100.00,North,-999,-999.0,-999.0,94,-99.99,,,-99.99,,2013-03-08 17:11:00,
2013-03-08 17:21:00,38.0,36.0,-100.00,North,-999,-999.0,-999.0,94,-99.99,,,-99.99,,2013-03-08 17:21:00,
2013-03-08 17:31:00,44.0,39.0,-100.00,North,-999,-999.0,-999.0,84,-99.99,,,-99.99,,2013-03-08 17:31:00,
2013-03-08 18:01:00,42.0,37.0,-100.00,North,-999,-999.0,-999.0,83,-99.99,,,-99.99,,2013-03-08 18:01:00,
2013-03-08 18:11:00,42.0,37.0,-100.00,North,-999,-999.0,-999.0,83,-99.99,,,-99.99,,2013-03-08 18:11:00,
2013-03-08 18:21:00,42.0,37.0,-100.00,North,-999,-999.0,-999.0,83,-99.99,,,-99.99,,2013-03-08 18:21:00,
2013-03-08 18:31:00,44.0,37.0,-100.00,North,-999,-999.0,-999.0,75,-99.99,,,-99.99,,2013-03-08 18:31:00,
2013-03-08 18:42:00,44.0,37.0,-100.00,North,-999,-999.0,-999.0,75,-99.99,,,-99.99,,2013-03-08 18:42:00,
2013-03-08 18:52:00,44.0,37.0,-100.00,North,-999,-999.0,-999.0,75,-99.99,,,-99.99,,2013-03-08 18:52:00,
2013-03-08 19:01:00,47.0,38.0,-100.00,North,-999,-999.0,-999.0,71,-99.99,,,-99.99,,2013-03-08 19:01:00,
2013-03-08 19:11:00,47.0,38.0,-100.00,North,-999,-999.0,-999.0,71,-99.99,,,-99.99,,2013-03-08 19:11:00,
2013-03-08 19:21:00,47.0,38.0,-100.00,North,-999,-999.0,-999.0,71,-99.99,,,-99.99,,2013-03-08 19:21:00,
2013-03-08 19:31:00,47.0,37.0,-100.00,North,-999,-999.0,-999.0,69,-99.99,,,-99.99,,2013-03-08 19:31:00,
2013-03-08 20:01:00,47.0,37.0,-100.00,North,-999,-999.0,-999.0,69,-99.99,,,-99.99,,2013-03-08 20:01:00,